Hauptseite
METAR-TAF:

METAR-TAF

Flughäfen :

Plzeň, Tschechien

Breite: 49-40-31N, Länge: 13-16-29E, Höhe: 362 m

Beobachtung

Neuester Wetterbericht von vor 11 Minuten, um 14:00 UTC
Wind 4 kt aus West, variierte zwischen Süd/Südwest und West/Nordwest
Temperatur 23°C
Luftfeuchtigkeit 57%
Luftdruck 1024 hPa
Sichtweite 10 km oder mehr
Geschlossene Wolkendecke in der Höhe von 4500 ft

METAR: LKLN 191400Z AUTO 26004KT 210V300 9999 OVC045 23/14 Q1024

Zeit: 16:11 (14:11 UTC)


TAF: fehlend

Wetterbeobachtungen und Prognosen von mehr als 4000 Flughäfen (METAR und TAF Bericht).

Die verfügbaren Stationen werden durch gelbe und rote Markierungen auf der Karte dargestellt.

Führen Sie die Maus auf sie, um den Namen der Station zu sehen.

Darauf klicken, um die Beobachtung von Wetterbeobachtungen und Prognosen zu sehen.

Um die Karte zu ändern : klicken Sie auf den grünen Tasten mit einem schwarzen Kreuz Zum Vergrößern, auf den grünen Button mit einem Gedankenstrich zu verkleinern, oder auf die grünen Pfeile für benachbarte Karten.


METAR-TAF: